Tracking 19576 objects as of 17-Feb-2019
HD Live streaming from Space Station
objects crossing your sky now

INTELSAT 3-F8

Track INTELSAT 3-F8 now!
INTELSAT 3-F8 is classified as:


NORAD ID: 4478
Int'l Code: 1970-055A
Perigee: 33,849.4 km
Apogee: 36,638.6 km
Inclination: 1.0 °
Period: 1,408.1 minutes
Semi major axis: 41614 km
RCS: 2.5127 m2 (large)
Launch date: July 23, 1970
Source: International Telecommunications Satellite Organization (ITSO)
Launch site: AIR FORCE EASTERN TEST RANGE (AFETR)
aabbcc
Your satellite tracking list
Your tracking list is empty




NASA's NSSDC Master Catalog

Two Line Element Set (TLE):
1  4478U 70055A   19048.52078551 -.00000122  00000-0  00000+0 0  9990
2  4478   1.0177 301.7421 0335110 190.0147  66.6482  1.02265258 95494
Source of the keplerian elements: AFSPC